Content
SEND FEEDBACK

Daily
Averages
Monthly
Summary
United States of America

TAMUNING, GUAM


Home > North America > United States > Guam
Elevation: 250 feet     Latitude: 13 29N     Longitude: 144 47E

WEATHER
 
SELECT A DAY
Number of Records: 342,166;   Date Range: 1/1/95 - 8/12/14
 
SHARE

PRINT THIS DATA

[ ← Previous Day ]
WEATHER ALMANAC - MAY 9, 2013
[ Next Day → ]
[ °C ]   °F
Weather ElementAverageHighLow
Temperature81.2 °F86 °F (1:42 pm)77.9 °F (11:55 pm)
Dewpoint75.5 °F77 °F (12:25 am)73.4 °F (1:42 pm)
Humidity83.2 %95 % (11:55 pm)66 % (1:42 pm)
Barometer29.82 in29.86 in (8:55 am)29.78 in (3:55 pm)
Wind Speed9.3 mph15 mph (11:30 pm)
Weather ElementAverage
Visibility10 mi
Wind DirectionENE (67.2 °)

Weather ElementTotal
Precipitation---
Cooling Degree Days17 (Base 65)
Growing Degree Days32 (Base 50)
Averaged from 58 records on May 9, 2013
WEATHER CONDITIONS BREAKOUT
WIND DIRECTION BREAKOUT
WEATHER BY HOUR - MAY 9, 2013
[ °C ]   °F
Local TimeTemperatureDewpointHumidityBarometerVisibilityWind DirectionWind SpeedGust SpeedPrecipitationEventsConditions
12:12 AM78.8 °F75.2 °F89 %29.84 in10.0 miENE (60°)8.1 mphScattered Clouds
12:22 AM78.8 °F75.2 °F89 %29.83 in10.0 miENE (60°)9.2 mphMostly Cloudy
12:25 AM78.8 °F77.0 °F94 %29.83 in10.0 miENE (70°)8.1 mphScattered Clouds
12:55 AM79.2 °F75.4 °F88 %29.83 in10.0 miENE (70°)6.9 mphScattered Clouds
1:27 AM78.8 °F77.0 °F94 %29.82 in10.0 miENE (60°)9.2 mphMostly Cloudy
1:32 AM78.8 °F77.0 °F94 %29.82 in10.0 miENE (60°)10.4 mphScattered Clouds
1:35 AM78.8 °F75.2 °F89 %29.81 in10.0 miENE (60°)10.4 mphMostly Cloudy
1:53 AM78.8 °F75.2 °F89 %29.81 in10.0 miENE (60°)10.4 mphScattered Clouds
1:55 AM79.5 °F76.1 °F89 %29.81 in10.0 miENE (60°)9.2 mphScattered Clouds
2:03 AM78.8 °F75.2 °F89 %29.81 in10.0 miENE (70°)10.4 mphMostly Cloudy
2:06 AM78.8 °F75.2 °F89 %29.81 in10.0 miENE (70°)10.4 mphMostly Cloudy
2:55 AM78.4 °F75.9 °F92 %29.79 in10.0 miENE (60°)8.1 mphClear
3:55 AM78.6 °F75.6 °F90 %29.79 in10.0 miENE (70°)10.4 mphPartly Cloudy
4:55 AM79.0 °F75.2 °F88 %29.79 in10.0 miEast (80°)9.2 mphPartly Cloudy
5:28 AM78.8 °F75.2 °F89 %29.80 in10.0 miENE (70°)6.9 mphMostly Cloudy
5:39 AM78.8 °F75.2 °F89 %29.80 in10.0 miEast (90°)9.2 mphMostly Cloudy
5:41 AM78.8 °F75.2 °F89 %29.80 in10.0 miEast (90°)9.2 mphMostly Cloudy
5:42 AM78.8 °F77.0 °F94 %29.80 in10.0 miEast (100°)8.1 mphMostly Cloudy
5:47 AM78.8 °F77.0 °F94 %29.81 in10.0 miEast (90°)10.4 mphMostly Cloudy
5:52 AM78.8 °F75.2 °F89 %29.81 in10.0 miENE (60°)8.1 mphMostly Cloudy
5:55 AM78.4 °F75.7 °F91 %29.81 in10.0 miENE (60°)8.1 mphScattered Clouds
6:55 AM80.1 °F74.5 °F83 %29.83 in10.0 miEast (80°)9.2 mphPartly Cloudy
7:55 AM81.5 °F75.2 °F81 %29.84 in10.0 miEast (90°)9.2 mphPartly Cloudy
8:23 AM82.4 °F75.2 °F79 %29.84 in10.0 miEast (90°)9.2 mphMostly Cloudy
8:37 AM82.4 °F75.2 °F79 %29.85 in10.0 miEast (90°)10.4 mphScattered Clouds
8:55 AM83.1 °F76.3 °F80 %29.86 in10.0 miEast (80°)10.4 mphScattered Clouds
9:21 AM82.4 °F77.0 °F84 %29.86 in10.0 miEast (90°)9.2 mphMostly Cloudy
9:31 AM84.2 °F75.2 °F74 %29.86 in10.0 miEast (90°)10.4 mphScattered Clouds
9:36 AM84.2 °F75.2 °F74 %29.86 in10.0 miEast (80°)11.5 mphMostly Cloudy
9:55 AM83.8 °F75.7 °F76 %29.86 in10.0 miEast (100°)11.5 mphMostly Cloudy
10:08 AM84.2 °F75.2 °F74 %29.85 in10.0 miEast (100°)11.5 mphScattered Clouds
10:55 AM84.6 °F75.4 °F74 %29.85 in10.0 miESE (110°)9.2 mphPartly Cloudy
11:38 AM84.2 °F77.0 °F79 %29.84 in10.0 miEast (80°)9.2 mphMostly Cloudy
11:46 AM84.2 °F77.0 °F79 %29.83 in10.0 miEast (80°)9.2 mphMostly Cloudy
11:55 AM84.4 °F76.5 °F77 %29.83 in10.0 miEast (90°)9.2 mphMostly Cloudy
12:55 PM84.6 °F75.7 °F75 %29.82 in10.0 miEast (80°)8.1 mphMostly Cloudy
1:42 PM86.0 °F73.4 °F66 %29.81 in10.0 miENE (70°)8.1 mphMostly Cloudy
1:44 PM84.2 °F73.4 °F70 %29.81 in10.0 miENE (60°)8.1 mphScattered Clouds
1:47 PM84.2 °F73.4 °F70 %29.81 in10.0 miENE (70°)8.1 mphMostly Cloudy
1:51 PM84.2 °F73.4 °F70 %29.80 in10.0 miEast (80°)8.1 mphScattered Clouds
1:55 PM84.9 °F74.7 °F71 %29.80 in10.0 miEast (100°)8.1 mphScattered Clouds
2:55 PM85.1 °F73.9 °F69 %29.79 in10.0 miENE (70°)8.1 mphPartly Cloudy
3:55 PM84.4 °F75.0 °F73 %29.78 in10.0 miEast (90°)9.2 mphPartly Cloudy
4:47 PM82.4 °F75.2 °F79 %29.79 in10.0 miNE (50°)6.9 mphMostly Cloudy
4:55 PM82.9 °F75.2 °F77 %29.79 in10.0 miNE (50°)6.9 mphMostly Cloudy
4:57 PM82.4 °F75.2 °F79 %29.79 in10.0 miNE (40°)9.2 mphMostly Cloudy
5:16 PM82.4 °F75.2 °F79 %29.79 in10.0 miNE (40°)6.9 mphScattered Clouds
5:55 PM82.0 °F75.7 °F81 %29.81 in10.0 miNE (40°)6.9 mphPartly Cloudy
6:55 PM81.3 °F75.6 °F83 %29.83 in10.0 miNE (50°)8.1 mphClear
7:55 PM81.0 °F75.9 °F85 %29.84 in10.0 miNE (40°)8.1 mphScattered Clouds
8:55 PM80.8 °F76.1 °F86 %29.85 in10.0 miNE (40°)8.1 mphPartly Cloudy
9:55 PM80.4 °F75.7 °F86 %29.86 in10.0 miNNE (30°)9.2 mphPartly Cloudy
10:55 PM80.6 °F75.9 °F86 %29.86 in10.0 miNE (40°)10.4 mphScattered Clouds
11:30 PM78.8 °F75.2 °F89 %29.86 in10.0 miNNE (30°)15.0 mphScattered Clouds
11:33 PM78.8 °F75.2 °F89 %29.86 in10.0 miNE (40°)12.7 mphRainLight Rain
11:37 PM78.8 °F75.2 °F89 %29.86 in10.0 miNNE (30°)12.7 mphRainRain
11:38 PM78.8 °F75.2 °F89 %29.86 in10.0 miNNE (30°)12.7 mphRainLight Rain
11:55 PM77.9 °F76.3 °F95 %29.85 in10.0 miNorth (10°)8.1 mph0.00 inRainLight Rain
Hourly data recorded from PGUA, located miles away from Tamuning, Guam







STORIES FROM OUR PARTNERS